Погода в Улюколи

Россия / Красноярский край     56°42′25″N   94°55′25″E
темп.,
°C
ветер,
м/с
пор.,
м/с
влажн.,
%
обл.,
%
осадки,
мм/ч
давл.,
гПа
погр.,
м
20 июня, вс
вс2001:00+14ююв22875 0.1 100127
04:00+13юв23886 0.0 100145
07:00+19юв24675 0.0 1001266
10:00+24юв335020 0.0 1000859
13:00+28вюв333830 0.0 9991924
16:00+28юв324088 0.0 9982257
19:00+17ссз3598100 45.1 1002234
22:00+15зсз3996100 2.4 1003271
21 июня, пн
пн2101:00+14сз3898100 2.4 1004564
04:00+13зсз4997100 0.2 1004548
07:00+11зсз51097100 10.5 1005599
10:00+11зсз4997100 1.6 1007739
13:00+10зсз4996100 2.8 1009804
16:00+10зсз41097100 1.4 1010707
19:00+10зюз3995100 1.8 1011564
22:00+10юз3996100 2.5 1012450
22 июня, вт
вт2201:00+9юз2696100 4.3 1012255
04:00+9ю229418 0.3 101131
07:00+12ю128544 0.3 1011175
10:00+17вюв225411 0.0 10101108
13:00+19вюв3449100 0.0 10091354
16:00+19в3350100 0.0 10081207
19:00+18в2566100 0.0 1007223
22:00+13ссв118394 0.0 100810
23 июня, ср
ср2301:00+12св0187100 0.0 100710
04:00+12з2898100 3.2 1010252
07:00+12з3798100 10.9 1011486
10:00+11з2795100 4.7 1012489
13:00+18ссз244917 4.8 10121662
16:00+20зсз3342100 0.0 10112150
19:00+16ссз2667100 0.0 1012314
22:00+11з008189 0.0 101210
24 июня, чт
чт2401:00+9з1190100 0.0 101210
04:00+8з1191100 0.0 101211
07:00+12сз2374100 0.0 1010204
10:00+16сз2361100 0.0 1009784
13:00+16з3566100 0.1 1008856
16:00+14з2682100 0.8 1008423
19:00+13с148474 1.4 1008210
22:00+10зюз11934 0.0 100810